Location: Asheville, NC
(35.6000°N, 82.5500°W)
Time: 09:13:29
(UTC-04:00)

Envisat - Pass Details

Date: 09 March 2018
Orbit: 764 x 766 km, 98.2° (Epoch: 25 June)

Event Time Altitude Azimuth Distance (km) Brightness Sun altitude
Rises 20:36:51 0° 186° (S) 3,211 6.1 -25.9°
Reaches altitude 10° 20:39:18 10° 194° (SSW) 2,289 5.4 -26.4°
Maximum altitude 20:43:57 38° 262° (W) 1,162 4.3 -27.3°
Drops below altitude 10° 20:48:39 10° 330° (NNW) 2,303 6.0 -28.2°
Sets 20:51:08 0° 338° (NNW) 3,233 6.7 -28.7°
